This is the latest recevied weather packets stored in our database for station/object K2NV. If no packets are shown the sender has not sent any weather packets the latest 10 day(s).
| Time | Temp. | Humidity | Pressure | Rain* | Wind** | Luminosity | Snow |
|---|---|---|---|---|---|---|---|
| 1777821558 | 10.56° C | 69% | 1012.9 hPa | 0 mm | - | - | - |
| 1777821257 | 10.56° C | 69% | 1012.9 hPa | 0 mm | - | - | - |
| 1777820957 | 10° C | 64% | 1013 hPa | 0 mm | - | - | - |
| 1777820658 | 10° C | 55% | 1012.9 hPa | 0 mm | - | - | - |
| 1777820357 | 10° C | 57% | 1012.9 hPa | 0 mm | - | - | - |
| 1777820058 | 10° C | 55% | 1013 hPa | 0 mm | - | - | - |
| 1777819758 | 10° C | 53% | 1012.9 hPa | 0 mm | - | - | - |
| 1777819457 | 10° C | 53% | 1013 hPa | 0 mm | - | - | - |
| 1777818857 | 10.56° C | 55% | 1012.9 hPa | 0 mm | - | - | - |
| 1777818557 | 10.56° C | 57% | 1013 hPa | 0 mm | - | - | - |
| 1777818258 | 11.11° C | 55% | 1012.9 hPa | 0 mm | - | - | - |
| 1777817957 | 10.56° C | 62% | 1013 hPa | 0 mm | - | - | - |
| 1777817657 | 10° C | 66% | 1012.9 hPa | 0 mm | - | - | - |
| 1777817358 | 9.44° C | 68% | 1012.9 hPa | 0 mm | - | - | - |
| 1777817057 | 9.44° C | 68% | 1012.9 hPa | 0 mm | - | - | - |
| 1777816756 | 8.89° C | 71% | 1013 hPa | 0 mm | - | - | - |
| 1777816458 | 8.89° C | 72% | 1013 hPa | 0 mm | - | - | - |
| 1777816157 | 8.89° C | 71% | 1013 hPa | 0 mm | - | - | - |
| 1777815856 | 8.33° C | 72% | 1013.1 hPa | 0 mm | - | - | - |
| 1777815558 | 8.33° C | 75% | 1013 hPa | 0 mm | - | - | - |
| 1777815257 | 8.33° C | 76% | 1013 hPa | 0 mm | - | - | - |
| 1777814956 | 8.33° C | 74% | 1013 hPa | 0 mm | - | - | - |
| 1777814658 | 8.33° C | 76% | 1013 hPa | 0 mm | - | - | - |
| 1777814357 | 7.78° C | 76% | 1013.1 hPa | 0 mm | - | - | - |
| 1777814056 | 7.78° C | 76% | 1013 hPa | 0 mm | - | - | - |
* Rain latest hour (hover to see other rain measurements)
** Current wind speed in m/s (hover to see current wind gust speed)